Location: Mentone
(34.5413°N, 85.5351°W)
Time: 07:56:36
(UTC-05:00)

ADEOS Rocket - Visible Passes

Search period start: 30 March 2015 00:00
Search period end: 09 April 2015 00:00
Orbit: 859 x 1307 km, 98.7° (Epoch: 28 March)

Date Brightness Start Highest point End Pass type
(mag) Time Alt. Az. Time Alt. Az. Time Alt. Az.
30 Mar 4.3 20:37:05 10° S 20:44:41 54° W 20:52:00 10° NNW visible
31 Mar 3.6 19:48:08 10° SSE 19:55:51 72° ENE 20:03:18 10° N visible
31 Mar 5.7 21:36:20 10° SW 21:41:53 20° W 21:46:56 10° NW visible
01 Apr 4.5 20:45:08 10° S 20:52:34 46° W 20:59:39 10° NNW visible
02 Apr 3.5 19:55:55 10° SSE 20:03:41 82° ENE 20:11:06 10° N visible
02 Apr 5.9 21:45:01 10° SW 21:49:52 17° W 21:54:06 10° NW visible
03 Apr 4.7 20:53:16 10° SSW 21:00:28 40° W 21:07:16 10° NNW visible
04 Apr 3.6 20:03:45 10° SSE 20:11:31 87° WSW 20:18:52 10° NNW visible
04 Apr 6.0 21:54:01 10° WSW 21:57:50 14° W 22:01:00 10° WNW visible
05 Apr 5.0 21:01:27 10° SSW 21:08:22 34° W 21:14:50 10° NW visible
06 Apr 3.7 20:11:38 10° S 20:19:21 77° WSW 20:26:37 10° NNW visible
06 Apr 6.1 22:03:45 10° WSW 22:05:51 11° W 22:07:11 10° WNW visible
07 Apr 3.8 19:23:22 10° SE 19:30:38 50° ENE 19:37:30 10° N visible
07 Apr 5.2 21:09:44 10° SSW 21:16:17 29° W 21:22:19 10° NW visible
08 Apr 3.9 20:19:34 10° S 20:27:12 66° W 20:34:19 10° NNW visible
